Location: Newark
(39.5667°N, 8.9833°E)
Time: 14:07:22
(UTC+00:00)

A-11 Canister half - All Passes

Search period start: 22 October 2019 00:00
Search period end: 01 November 2019 00:00
Orbit: 1514 x 1686 km, 47.2° (Epoch: 21 October)

Date Brightness Start Highest point End Pass type
(mag) Time Alt. Az. Time Alt. Az. Time Alt. Az.
22 Oct - 00:59:05 10° WSW 01:09:11 88° SSE 01:18:57 10° ENE visible
22 Oct - 03:05:12 10° W 03:14:55 57° N 03:24:17 10° ENE visible
22 Oct - 05:11:28 10° WNW 05:21:07 64° NNE 05:30:25 10° E visible
22 Oct - 07:16:50 10° WNW 07:26:11 63° SW 07:35:15 10° SE daylight
22 Oct - 09:24:10 10° W 09:29:35 17° SW 09:34:59 10° SSW daylight
22 Oct - 22:33:43 10° S 22:42:04 30° SE 22:50:15 10° ENE night (unlit)
23 Oct - 00:36:09 10° SW 00:46:15 85° SSE 00:56:02 10° ENE visible
23 Oct - 02:42:09 10° W 02:51:55 57° N 03:01:19 10° ENE visible
23 Oct - 04:48:29 10° WNW 04:58:08 63° NNE 05:07:26 10° E visible
23 Oct - 06:53:51 10° WNW 07:03:18 67° SW 07:12:26 10° SE daylight
23 Oct - 09:00:52 10° W 09:06:47 19° SW 09:12:40 10° SSW daylight
23 Oct - 22:11:05 10° S 22:19:13 28° SE 22:27:10 10° ENE night (unlit)
24 Oct - 00:13:12 10° SW 00:23:18 81° SSE 00:33:07 10° ENE visible
24 Oct - 02:19:06 10° W 02:28:54 58° N 02:38:23 10° ENE visible
24 Oct - 04:25:29 10° WNW 04:35:09 61° NNE 04:44:28 10° E visible
24 Oct - 06:30:54 10° WNW 06:40:25 70° SW 06:49:37 10° SE daylight
24 Oct - 08:37:38 10° W 08:43:59 21° SW 08:50:16 10° S daylight
24 Oct - 21:48:28 10° S 21:56:21 26° SE 22:04:05 10° ENE night (unlit)
24 Oct - 23:50:16 10° SW 00:00:21 78° SE 00:10:11 10° ENE visible
25 Oct - 01:56:03 10° W 02:05:54 59° NNW 02:15:25 10° ENE visible
25 Oct - 04:02:28 10° WNW 04:12:10 60° NNE 04:21:29 10° E visible
25 Oct - 06:07:56 10° WNW 06:17:31 74° SW 06:26:46 10° SE daylight
25 Oct - 08:14:27 10° W 08:21:11 22° SW 08:27:49 10° S daylight
25 Oct - 21:25:55 10° S 21:33:30 25° SE 21:40:57 10° ENE night (unlit)
25 Oct - 23:27:20 10° SW 23:37:26 75° SE 23:47:15 10° ENE visible
26 Oct - 01:32:59 10° W 01:42:54 61° NNW 01:52:28 10° ENE visible
26 Oct - 03:39:28 10° WNW 03:49:11 59° NNE 03:58:32 10° E visible
26 Oct - 05:44:58 10° WNW 05:54:36 77° SW 06:03:55 10° SE daylight
26 Oct - 07:51:17 10° WNW 07:58:22 24° SW 08:05:21 10° S daylight
26 Oct - 21:03:23 10° S 21:10:39 23° SE 21:17:48 10° E night (unlit)
26 Oct - 23:04:26 10° SW 23:14:30 71° SE 23:24:18 10° ENE visible
27 Oct - 01:09:56 10° W 01:19:54 62° NNW 01:29:31 10° ENE visible
27 Oct - 03:16:28 10° WNW 03:26:11 58° N 03:35:32 10° E visible
27 Oct - 05:22:00 10° WNW 05:31:43 81° SSW 05:41:04 10° SE daylight
27 Oct - 07:28:09 10° WNW 07:35:33 26° SW 07:42:49 10° S daylight
27 Oct - 20:40:54 10° S 20:47:48 21° SE 20:54:37 10° E night (unlit)
27 Oct - 22:41:32 10° SW 22:51:34 68° SE 23:01:22 10° ENE visible
28 Oct - 00:46:53 10° W 00:56:54 63° NNW 01:06:34 10° ENE visible
28 Oct - 02:53:26 10° WNW 03:03:11 57° N 03:12:34 10° E visible
28 Oct - 04:59:01 10° WNW 05:08:48 84° SSW 05:18:11 10° SE visible
28 Oct - 07:05:03 10° WNW 07:12:44 29° SW 07:20:15 10° S daylight
28 Oct - 20:18:29 10° SSE 20:24:57 19° SE 20:31:22 10° E night (unlit)
28 Oct - 22:18:39 10° SW 22:28:38 65° SE 22:38:26 10° ENE night (unlit)
29 Oct - 00:23:51 10° W 00:33:53 65° NNW 00:43:37 10° ENE visible
29 Oct - 02:30:24 10° WNW 02:40:11 57° N 02:49:35 10° E visible
29 Oct - 04:36:04 10° WNW 04:45:53 88° SSW 04:55:18 10° ESE visible
29 Oct - 06:41:58 10° WNW 06:49:55 31° SW 06:57:40 10° S daylight
29 Oct - 19:56:07 10° SSE 20:02:07 18° SE 20:08:04 10° E night (unlit)
29 Oct - 21:55:47 10° SW 22:05:43 62° SE 22:15:28 10° ENE night (unlit)
30 Oct - 00:00:49 10° W 00:10:54 67° NNW 00:20:41 10° ENE visible
30 Oct - 02:07:22 10° WNW 02:17:10 56° N 02:26:35 10° E visible
30 Oct - 04:13:05 10° WNW 04:22:57 89° NNE 04:32:24 10° ESE visible
30 Oct - 06:18:53 10° WNW 06:27:04 33° SW 06:35:03 10° S daylight
30 Oct - 19:33:50 10° SSE 19:39:17 16° ESE 19:44:42 10° E visible
30 Oct - 21:32:55 10° SW 21:42:48 58° SE 21:52:31 10° ENE night (unlit)
30 Oct - 23:37:47 10° WSW 23:47:54 68° NNW 23:57:44 10° ENE visible
31 Oct - 01:44:21 10° WNW 01:54:09 56° N 02:03:36 10° E visible
31 Oct - 03:50:07 10° WNW 04:00:01 86° NNE 04:09:30 10° ESE visible
31 Oct - 05:55:50 10° WNW 06:04:15 36° SW 06:12:25 10° SSE daylight
31 Oct - 19:11:39 10° SSE 19:16:27 14° ESE 19:21:14 10° E visible
31 Oct - 21:10:05 10° SSW 21:19:53 55° SE 21:29:33 10° ENE night (unlit)
31 Oct - 23:14:45 10° WSW 23:24:54 70° NNW 23:34:47 10° ENE visible
